Location: *
(2.5500°S, 65.9667°W)
Time: 23:17:46
(UTC+00:00)

Tiros 1 - Visible Passes

Search period start: 16 April 2024 00:00
Search period end: 26 April 2024 00:00
Orbit: 625 x 657 km, 48.4° (Epoch: 16 April)

Date Brightness Start Highest point End Pass type
(mag) Time Alt. Az. Time Alt. Az. Time Alt. Az.
22 Apr 9.6 00:33:12 10° SW 00:34:02 15° SW 00:34:02 15° SW visible
22 Apr 8.1 23:16:05 10° S 23:20:06 27° SE 23:21:13 24° ESE visible
23 Apr 10.0 00:58:11 10° WSW 00:58:53 13° W 00:58:53 13° W visible
23 Apr 7.0 23:39:24 10° SW 23:44:10 85° SE 23:46:28 30° NE visible
25 Apr 9.0 00:04:04 10° WSW 00:08:12 29° NW 00:12:13 10° N visible
25 Apr 7.1 22:45:37 10° SSW 22:50:22 68° SE 22:55:05 10° NE visible
